Wind_Speed
35 30 27 22 19 17 15 10 9 7 7 6 5 4 3 1 1 3 4 5 6 7 8 9 10 12 13 14 16 17 20 21
33 31 28 25 23 20 16 13 11 10 9 8 7 5 3 1 1 2 4 5 6 7 8 9 10 11 13 14 14 16 17 19
38 35 32 29 25 22 18 16 14 13 12 10 9 7 5 3 1 1 3 4 5 7 8 9 9 10 11 12 12 12 13 16
42 40 36 32 28 23 20 18 16 15 14 13 10 8 6 3 1 2 3 4 5 6 6 7 8 9 11 14 16 17 16 15
46 44 40 35 29 25 21 19 18 17 16 14 11 8 6 4 2 1 3 4 5 6 8 10 13 14 15 16 17 17 17 16
53 51 44 36 31 26 22 21 20 19 17 15 13 11 9 6 3 3 2 3 5 8 10 12 13 14 14 15 15 15 15 14
40 44 43 38 33 29 25 24 23 21 19 16 14 11 9 7 5 4 3 5 7 9 11 11 12 13 14 15 16 15 14 12
40 45 48 43 38 33 29 26 24 22 19 17 14 13 11 8 6 5 5 5 6 7 8 9 10 12 12 13 12 12 11 10
40 42 47 46 40 35 31 29 26 22 20 18 16 13 11 9 7 5 4 4 5 7 7 9 9 10 11 12 12 12 11 10
34 36 46 47 41 37 33 29 26 23 20 18 16 13 11 9 7 6 4 4 4 5 6 7 9 10 11 11 11 11 11 10
30 35 41 45 41 36 32 28 25 23 21 19 16 13 11 10 7 5 3 2 3 5 5 5 6 8 9 10 10 10 10 10
26 29 36 42 40 36 33 29 27 25 22 19 16 14 13 10 7 5 3 2 2 3 2 4 6 8 9 10 10 10 9 9
26 30 37 45 45 40 35 31 28 25 22 20 18 16 15 11 9 6 4 2 1 2 2 4 5 8 9 9 9 8 7 7
21 28 38 47 46 42 38 34 30 26 23 21 20 18 14 13 11 8 5 3 2 1 2 3 6 7 7 7 6 6 6 7
23 27 37 47 47 42 38 35 30 27 24 22 20 18 17 15 11 8 6 3 3 2 3 5 5 5 3 4 5 5 6 7
22 25 30 43 46 43 39 36 32 27 24 24 23 21 17 14 11 8 6 6 5 3 2 5 3 2 3 4 4 3 5 6
21 27 36 45 46 43 38 37 34 31 31 29 25 21 19 15 12 10 9 7 6 5 3 3 4 3 3 4 4 5 6 5
20 30 34 42 42 44 44 37 35 33 30 27 23 19 17 16 13 11 10 9 8 7 5 4 4 4 4 6 5 6 7 7
14 20 26 37 41 39 37 38 33 33 32 27 24 20 18 15 13 12 12 11 10 8 6 5 4 5 6 6 6 7 8 10
Wind_Direction
208 207 206 206 207 209 213 209 216 222 221 220 212 202 202 203 335 346 354 352 350 343 338 331 324 319 316 313 312 310 309 307
208 206 206 206 206 206 207 208 213 218 218 212 201 199 190 164 37 10 8 5 358 351 344 338 333 328 324 320 316 313 311 307
211 208 206 206 206 204 202 204 211 210 205 209 199 193 186 182 163 33 7 2 358 352 345 338 334 327 320 318 318 321 324 332
210 208 207 205 202 202 201 206 210 206 203 203 203 197 194 192 159 50 30 20 12 6 2 357 355 352 353 355 353 350 348 346
216 210 206 205 202 199 201 204 206 203 198 200 200 204 205 195 170 80 49 35 27 22 20 18 17 17 14 9 4 358 355 350
216 214 210 204 202 201 199 199 197 195 195 195 201 207 201 193 169 115 80 55 40 35 34 31 28 27 24 20 16 12 9 3
214 215 208 204 201 200 198 195 192 191 192 194 194 196 198 186 168 139 96 58 46 38 36 32 32 29 23 21 22 23 23 18
211 211 205 203 201 198 196 193 192 190 189 189 191 193 190 177 163 145 111 77 56 45 36 27 23 23 19 20 20 21 21 17
211 210 207 202 199 197 195 192 190 188 187 188 190 189 186 175 164 138 109 78 54 38 30 24 20 19 17 14 11 5 360 1
205 202 207 201 199 196 194 191 188 189 188 188 188 186 182 176 161 142 121 81 53 43 30 23 20 18 17 12 6 356 349 351
207 206 208 202 200 195 191 193 193 190 186 186 185 185 182 172 161 154 127 84 53 43 30 17 12 13 9 7 2 353 351 350
203 201 205 200 196 194 191 192 191 189 187 185 187 187 179 175 169 165 150 110 68 49 25 20 12 11 8 8 5 359 354 356
211 207 204 198 194 191 191 192 191 192 190 187 188 184 182 178 178 178 174 151 126 64 20 30 19 18 15 14 8 6 1 5
199 199 202 199 194 192 192 191 191 192 191 192 188 187 184 184 183 180 176 166 144 171 76 46 29 23 19 14 357 8 14 12
205 204 204 200 195 194 191 191 191 192 195 194 193 189 189 186 184 177 174 174 188 148 80 60 40 27 13 18 14 11 15 22
203 202 200 199 197 194 193 193 190 193 197 198 192 191 187 189 182 180 184 191 169 136 91 76 76 73 61 55 45 31 30 27
216 208 205 202 202 197 195 195 191 195 197 192 190 185 191 189 184 184 194 185 158 150 142 114 94 96 88 83 90 69 58 46
226 222 217 205 204 201 199 199 195 193 193 190 189 191 191 192 189 189 193 182 165 160 146 127 110 125 110 108 102 80 63 55
265 240 225 212 214 211 202 203 198 197 192 192 190 190 195 192 192 193 189 173 162 156 141 139 123 128 122 117 105 87 72 62
Height
1501 1505 1508 1510 1513 1514 1516 1518 1519 1521 1523 1524 1524 1524 1524 1525 1525 1525 1524 1524 1524 1523 1523 1523 1522 1522 1521 1520 1518 1517 1516 1515
1498 1501 1504 1507 1509 1511 1513 1515 1516 1518 1520 1521 1522 1522 1523 1523 1523 1523 1523 1522 1522 1522 1521 1521 1520 1520 1519 1517 1516 1514 1512 1510
1491 1494 1497 1501 1504 1506 1509 1511 1514 1516 1518 1520 1520 1520 1521 1522 1522 1522 1522 1521 1521 1520 1520 1520 1519 1518 1518 1516 1514 1511 1509 1506
1482 1486 1491 1496 1498 1501 1504 1507 1509 1512 1515 1517 1518 1519 1520 1520 1521 1520 1520 1520 1520 1519 1518 1518 1516 1515 1514 1511 1508 1507 1506 1505
1475 1478 1483 1489 1495 1496 1499 1502 1505 1508 1511 1514 1516 1517 1518 1518 1519 1519 1519 1518 1518 1518 1516 1515 1513 1512 1511 1508 1506 1504 1503 1502
1461 1468 1476 1483 1488 1493 1495 1499 1502 1505 1508 1511 1513 1515 1516 1517 1517 1517 1517 1517 1517 1516 1514 1513 1512 1511 1509 1507 1505 1502 1500 1499
1460 1466 1473 1478 1482 1486 1489 1494 1498 1502 1505 1508 1510 1512 1514 1515 1515 1515 1516 1516 1515 1514 1513 1513 1511 1510 1509 1506 1505 1503 1502 1502
1452 1455 1462 1469 1474 1480 1484 1489 1494 1498 1501 1504 1508 1510 1512 1512 1513 1514 1514 1514 1514 1514 1513 1513 1511 1509 1507 1506 1506 1504 1503 1502
1444 1450 1457 1463 1468 1475 1480 1485 1489 1493 1496 1500 1504 1507 1508 1509 1510 1512 1513 1513 1513 1512 1511 1510 1510 1508 1505 1505 1505 1505 1505 1502
1441 1448 1451 1458 1465 1470 1476 1482 1485 1489 1493 1497 1500 1504 1505 1507 1509 1509 1510 1510 1510 1510 1510 1509 1509 1508 1506 1504 1503 1505 1506 1502
1440 1445 1449 1455 1462 1468 1474 1479 1484 1486 1488 1492 1496 1500 1503 1505 1505 1507 1507 1507 1508 1508 1508 1507 1506 1505 1503 1502 1502 1503 1503 1501
1437 1440 1448 1453 1458 1464 1470 1476 1479 1482 1484 1487 1492 1496 1500 1501 1503 1505 1505 1504 1506 1506 1506 1504 1504 1503 1502 1501 1500 1500 1501 1499
1431 1435 1439 1445 1449 1456 1463 1470 1475 1479 1481 1483 1488 1492 1494 1497 1500 1501 1503 1502 1503 1503 1503 1501 1502 1500 1501 1500 1502 1501 1502 1500
1430 1432 1436 1440 1443 1449 1454 1461 1468 1473 1476 1480 1483 1488 1491 1494 1496 1498 1500 1500 1500 1501 1498 1499 1498 1500 1500 1501 1504 1502 1500 1500
1427 1432 1434 1435 1438 1444 1451 1457 1461 1467 1472 1477 1480 1485 1488 1491 1493 1494 1496 1498 1500 1498 1496 1495 1496 1499 1501 1500 1502 1503 1502 1500
1424 1428 1432 1435 1438 1441 1446 1452 1454 1462 1468 1472 1475 1480 1486 1489 1489 1492 1495 1496 1495 1495 1496 1494 1495 1498 1499 1499 1499 1503 1502 1500
1425 1423 1424 1429 1435 1438 1445 1447 1450 1455 1462 1468 1472 1475 1482 1486 1487 1488 1495 1496 1492 1492 1494 1494 1495 1498 1499 1497 1500 1501 1500 1501
1421 1421 1422 1424 1431 1434 1437 1447 1449 1453 1459 1464 1470 1476 1479 1482 1485 1488 1492 1492 1490 1491 1492 1494 1493 1496 1498 1498 1501 1501 1500 1500
1417 1418 1418 1421 1427 1434 1438 1443 1447 1452 1456 1461 1467 1473 1479 1481 1485 1487 1491 1489 1489 1491 1491 1494 1496 1498 1498 1500 1501 1501 1500 1500